Weather Service Report


971 
ASUS44 KJAN 020410
RWRMS 

MISSISSIPPI HOURLY WEATHER ROUNDUP
NATIONAL WEATHER SERVICE JACKSON MS
1100 PM CDT FRI JUL 01 2016

NOTE: "FAIR: INDICATES FEW OR NO CLOUDS BELOW 12,000 FEET WITH NO
SIGNIFICANT WEATHER AND/OR OBSTRUCTIONS TO VISIBILITY.

MSZ001>002-007>008-010>013-018>021-025>028-034>036-020500-
NORTHWEST MISSISSIPPI
  
CITY           SKY/WX    TMP DP  RH WIND       PRES   REMARKS
CLEVELAND      FAIR      78  78  99 CALM      30.02S                  
GREENWOOD      CLEAR     75  71  87 CALM      30.03R                  
GREENVILLE     PTCLDY    78  72  81 CALM      30.02R                  
OXFORD         FAIR      75  68  78 N3        30.06S                  
WINONA         FAIR      74  73  95 CALM      30.03R                  
$$

MSZ003>006-009-014>017-022>024-029>033-037>039-020500-
NORTHEAST MISSISSIPPI
  
CITY           SKY/WX    TMP DP  RH WIND       PRES   REMARKS
ABERDEEN       FAIR      73  57  56 CALM      30.03R                  
COLUMBUS AFB   PTCLDY    77  71  83 NW1       30.01R                  
GOLDN TRIANGLE MOCLDY    81  68  65 NW3       30.02R                  
STARKVILLE     FAIR      75  72  88 CALM      30.02R                  
TUPELO         PTCLDY    80  69  69 NW3       30.03R                  
$$

MSZ040-058-020500-
CENTRAL MISSISSIPPI
  
CITY           SKY/WX    TMP DP  RH WIND       PRES   REMARKS
JACKSON INTL   CLEAR     81  71  71 N3        30.04R                  
JACKSON HAWKNS CLEAR     81  71  71 CALM      30.04R                  
MADISON        FAIR      77  72  83 CALM      30.04R                  
MERIDIAN KEY   CLEAR     79  70  74 CALM      30.03R                  
MERIDIAN NAS   CLOUDY    85  69  58 NW5       30.03R                  
VICKSBURG VKS  CLEAR     77  75  94 CALM      30.03R                  
$$

MSZ059>079-020500-
SOUTH MISSISSIPPI
  
CITY           SKY/WX    TMP DP  RH WIND       PRES   REMARKS
BROOKHAVEN     FAIR     N/A N/A N/A CALM      30.05R                  
COLUMBIA       FAIR      73  72  94 CALM      30.06R                  
HATTIESBURG    CLEAR     78  73  84 CALM      30.02R                  
MCCOMB         CLEAR     83  66  56 N3        30.04R                  
NATCHEZ        NOT AVBL                                               
PINE BELT      CLEAR     75  66  73 CALM      30.04S                  
$$

MSZ080>082-020500-
COASTAL MISSISSIPPI
  
CITY           SKY/WX    TMP DP  RH WIND       PRES   REMARKS
BILOXI         CLEAR     84  79  86 W3        30.01R HX  95           
PASCAGOULA     CLEAR     76  75  97 CALM      30.02R                  
GULFPORT       CLEAR     83  77  82 CALM      30.01R HX  92           
$$

LAZ007>009-015>016-023>026-020500-
NORTHEAST LOUISIANA
  
CITY           SKY/WX    TMP DP  RH WIND       PRES   REMARKS
BASTROP        FAIR      74  73  95 CALM      30.03S                  
TALLULAH/VBURG CLEAR     77  74  90 CALM      30.03R                  
VIDALIA        FAIR      76  72  88 CALM      30.05R                  
$$
  

Return to Home page


Western Regional Climate Center, wrcc@dri.edu